Regional Weather Roundup
Issued by NWS Kansas City/Pleasant Hill, MO

Home | Current Version | Previous Version | Graphics & Text | Print | Product List | Glossary Off
Versions: 1 2 3 4 5 6 7 8 9 10 11 12 13 14 15 16 17 18 19 20 21 22 23 24 25 26 27 28 29 30 31 32 33 34 35 36 37 38 39 40 41 42 43 44 45 46 47 48 49 50

000
ASUS43 KEAX 220311
RWREAX

WEATHER ROUNDUP FOR EASTERN KANSAS AND NORTHWEST MISSOURI
NATIONAL WEATHER SERVICE KANSAS CITY/PLEASANT HILL MO
1000 PM CDT TUE OCT 21 2014

KSZ040-057-103>105-MOZ028-029-037-043-220400-
...KANSAS CITY METROPOLITAN AREA...

CITY           SKY/WX    TMP DP  RH WIND       PRES   REMARKS
K.C. INTL      CLEAR     59  44  57 E10       30.11R
K.C. DOWNTOWN  CLEAR     60  43  53 NE8       30.10R
LEES SUMMIT    CLEAR     60  42  51 SE6       30.12R
OLATHE - IXD   CLEAR     58  44  60 SE7       30.12R
OLATHE - OJC   CLEAR     58  43  57 SE6       30.11R
LAWRENCE       CLEAR     53  45  74 SE5       30.10R

$$

MOZ001>008-011>017-020>025-030>033-038>040-044>046-053-054-220400-
...NORTHERN AND CENTRAL MISSOURI...

CITY           SKY/WX    TMP DP  RH WIND       PRES   REMARKS
ST. JOSEPH     CLEAR     59  43  55 SE8       30.10R
MOSBY          CLEAR     55  45  67 E5        30.12S
WHITEMAN AFB   CLEAR     56  45  66 E6        30.12R
CLINTON        CLEAR     55  48  76 E5        30.13R
SEDALIA        CLEAR     56  45  66 E6        30.15R
WARSAW         NOT AVBL
MARSHALL       CLEAR     57  46  67 E6        30.16R
CHILLICOTHE      N/A     56  45  66 VRB5      30.16R
MOBERLY        CLEAR     50  41  71 E5        30.18R
KIRKSVILLE     CLEAR     49  42  77 E6        30.19R

$$

MOZ041-047>049-056>058-063>065-088>090-097-220400-
...EASTERN AND SOUTHERN MISSOURI...

CITY           SKY/WX    TMP DP  RH WIND       PRES   REMARKS
ST. LOUIS INTL CLEAR     53  40  61 E5        30.20R
SPIRIT OF STL  CLEAR     48  43  82 CALM      30.18R
COLUMBIA       CLEAR     54  44  69 E8        30.17R
JEFFERSON CITY CLEAR     54  44  69 SE5       30.16R
MEXICO         CLEAR     52  46  82 E5        30.18R
HANNIBAL       CLEAR     52  37  58 E5        30.20R
ROLLA          CLEAR     53  44  71 E7        30.15R
LEBANON        CLEAR     57  43  58 E5        30.15R HAZE
OSAGE BEACH    CLEAR     55  45  67 E6        30.15R
SPRINGFIELD    CLEAR     53  45  74 CALM      30.12R
BRANSON        CLEAR     52  46  82 N5        30.13S
NEVADA         CLEAR     52  46  82 E5        30.13R
JOPLIN         CLEAR     58  49  72 SE7       30.11R
WEST PLAINS    CLEAR     52  45  77 NE6       30.15R

$$

IAZ060-094-KSZ022-034>040-054-083-096-NEZ052-066-093-220400-
...KANSAS...SOUTHEAST NEBRASKA AND IOWA...

CITY           SKY/WX    TMP DP  RH WIND       PRES   REMARKS
TOPEKA         CLEAR     58  46  64 SE7       30.09R
MANHATTAN      CLEAR     64  52  64 VRB3      30.04R
EMPORIA        CLEAR     61  55  81 SE9       30.07R
CHANUTE        CLEAR     61  53  75 E7        30.09R
WICHITA        CLEAR     68  59  73 SE10      30.04R
OMAHA          CLEAR     58  40  51 S8        30.07R
LINCOLN        CLEAR     62  40  44 SE10      30.05R
FALLS CITY     CLEAR     56  42  59 SE7       30.08R
LAMONI         CLEAR     53  44  71 E6        30.15R
DES MOINES     CLEAR     55  41  59 SE13      30.16R

$$




USA.gov is the U.S. government's official web portal to all federal, state and local government web resources and services.